GSAT0217 (GALILEO 21)

Last updated on Jan. 23, 2021, 7:11 a.m. UTC

1 43057U 17079C   21021.84795286 -.00000001  00000-0  00000-0 0  9990
2 43057  56.0994 275.8010 0004095 317.7964  42.2386  1.70473860 19362
UTC
Height (km)
Latitude
Longitude
Inclination
Orbital Period
UTC large
Height (km)
Speed (km/s)
/
Latitude / Longitude
Inclination (degrees)
Orbital Period (minutes)
Azimuth
Elevation
Range (km)
Doppler Factor
iOS Compass Heading
iOS Angle

Next 30 passes for location: Hong Kong

Rise time Rise Azimuth (degrees) Set time Set Azimuth (degrees) Duration Max altitude (degrees)

No matching passes for this satellites